Weather History for PAKW - September, 2013

Change the Weather History Date:

Sunday, September 1, 2013

  Actual Average Record
Temperature  
Mean Temperature 58 °F -  
Max Temperature 64 °F 59 °F 69 °F (2000)
Min Temperature 51 °F 47 °F 44 °F (2004)
Degree Days  
Heating Degree Days 8    
Growing Degree Days 8 (Base 50)    
Moisture  
Dew Point 54 °F    
Average Humidity 95    
Maximum Humidity 100    
Minimum Humidity 73    
Precipitation  
Precipitation 0.00 in - - ()
Sea Level Pressure  
Sea Level Pressure 29.90 in    
Wind  
Wind Speed 1 mph (SSW)    
Max Wind Speed 7 mph    
Max Gust Speed -    
Visibility 3 miles    
Events Fog    
Averages and records for this station are not official NWS values.
T = Trace of Precipitation, MM = Missing Value Source: NWS Daily Summary

Daily Weather History Graph

Daily Weather History Graph

Search for Another Location

Airport or City:

Trip Planner

Search our weather history database for the weather conditions in past years. The results will help you decide how hot, cold, wet, or windy it might be!

Date:

Astronomy

Sep. 01, 2013 Rise Set
Actual Time 5:58 AM AKDT 7:44 PM AKDT
Civil Twilight 5:19 AM AKDT 8:23 PM AKDT
Nautical Twilight 4:30 AM AKDT 9:11 PM AKDT
Astronomical Twilight 3:34 AM AKDT 10:07 PM AKDT
Moon 2:01 AM AKDT (9/1) 5:46 PM AKDT (9/1)
Length of Visible Light 15h 04m
Length of Day
13h 46m
Waning Crescent, 13% of the Moon is Illuminated
Sep 1
Waning Crescent
Sep 5
New
Sep 12
First Quarter
Sep 19
Full
Sep 26
Last Quarter

Hourly Weather History & Observations

Time (AKDT) Temp. Dew Point Humidity Pressure Visibility Wind Dir Wind Speed Gust Speed Precip Events Conditions
12:03 AM 53.6 °F 51.8 °F 94% 29.94 in 0.8 mi Calm Calm - N/A   Mist
12:19 AM 53.6 °F 53.6 °F 100% 29.93 in 1.5 mi Calm Calm - N/A   Mostly Cloudy
12:26 AM 53.6 °F 51.8 °F 94% 29.93 in 2.0 mi Calm Calm - N/A   Mostly Cloudy
12:33 AM 53.6 °F 51.8 °F 94% 29.93 in 1.8 mi Calm Calm - N/A   Scattered Clouds
12:42 AM 53.6 °F 51.8 °F 94% 29.93 in 1.2 mi Calm Calm - N/A   Mostly Cloudy
12:50 AM 51.8 °F 51.8 °F 100% 29.93 in 0.2 mi Calm Calm - N/A Fog Fog
12:53 AM 52.0 °F 51.1 °F 97% 29.93 in 0.2 mi Calm Calm - N/A Fog Fog
1:04 AM 53.6 °F 51.8 °F 94% 29.93 in 1.5 mi Calm Calm - N/A   Overcast
1:21 AM 51.8 °F 51.8 °F 100% 29.92 in 1.8 mi Calm Calm - N/A   Overcast
1:26 AM 51.8 °F 51.8 °F 100% 29.92 in 0.8 mi Calm Calm - N/A   Overcast
1:32 AM 53.6 °F 51.8 °F 94% 29.92 in 1.5 mi Calm Calm - N/A   Overcast
1:35 AM 51.8 °F 51.8 °F 100% 29.92 in 3.0 mi Calm Calm - N/A   Overcast
1:46 AM 51.8 °F 51.8 °F 100% 29.92 in 1.5 mi Calm Calm - N/A   Overcast
1:49 AM 51.8 °F 51.8 °F 100% 29.92 in 0.8 mi Calm Calm - N/A   Overcast
1:53 AM 52.0 °F 51.1 °F 97% 29.92 in 0.5 mi Calm Calm - N/A Fog Fog
2:08 AM 53.6 °F 51.8 °F 94% 29.92 in 0.2 mi Calm Calm - N/A Fog Fog
2:19 AM 51.8 °F 51.8 °F 100% 29.92 in 0.5 mi Calm Calm - N/A Fog Fog
2:53 AM 52.0 °F 52.0 °F 100% 29.91 in 1.0 mi Calm Calm - N/A   Mist
3:02 AM 53.6 °F 51.8 °F 94% 29.91 in 0.8 mi Calm Calm - N/A   Mist
3:26 AM 53.6 °F 51.8 °F 94% 29.90 in 1.0 mi Calm Calm - N/A   Mist
3:34 AM 53.6 °F 51.8 °F 94% 29.90 in 0.5 mi Calm Calm - N/A Fog Fog
3:53 AM 53.1 °F 52.0 °F 96% 29.90 in 0.5 mi Calm Calm - N/A Fog Fog
4:53 AM 54.0 °F 53.1 °F 97% 29.89 in 0.5 mi Calm Calm - N/A Fog Fog
5:53 AM 53.1 °F 52.0 °F 96% 29.88 in 0.5 mi Calm Calm - N/A Fog Fog
6:53 AM 53.1 °F 52.0 °F 96% 29.88 in 0.2 mi Calm Calm - N/A Fog Fog
7:53 AM 54.0 °F 54.0 °F 100% 29.88 in 0.2 mi Calm Calm - N/A Fog Fog
8:53 AM 54.0 °F 54.0 °F 100% 29.88 in 0.2 mi Calm Calm - N/A Fog Fog
9:53 AM 55.9 °F 55.9 °F 100% 29.88 in 1.0 mi Calm Calm - N/A   Mist
10:24 AM 57.2 °F 57.2 °F 100% 29.87 in 6.0 mi Calm Calm - N/A   Overcast
10:53 AM 57.0 °F 55.9 °F 96% 29.87 in 6.0 mi West 3.5 mph - N/A   Overcast
11:53 AM 57.9 °F 55.9 °F 93% 29.87 in 10.0 mi Calm Calm - N/A   Overcast
12:53 PM 59.0 °F 57.0 °F 93% 29.88 in 10.0 mi Variable 3.5 mph - N/A   Overcast
1:53 PM 62.1 °F 57.0 °F 84% 29.87 in 10.0 mi SSW 5.8 mph - N/A   Partly Cloudy
2:53 PM 64.9 °F 55.9 °F 73% 29.86 in 10.0 mi SSW 6.9 mph - N/A   Clear
3:53 PM 64.9 °F 55.9 °F 73% 29.86 in 10.0 mi SSW 5.8 mph - N/A   Clear
4:53 PM 62.1 °F 57.0 °F 84% 29.86 in 10.0 mi SSW 5.8 mph - N/A   Partly Cloudy
5:34 PM 60.8 °F 57.2 °F 88% 29.86 in 10.0 mi South 6.9 mph - N/A   Partly Cloudy
5:48 PM 59.0 °F 57.2 °F 94% 29.87 in 10.0 mi South 5.8 mph - N/A   Mostly Cloudy
5:53 PM 59.0 °F 57.0 °F 93% 29.86 in 10.0 mi South 4.6 mph - N/A   Mostly Cloudy
6:20 PM 57.2 °F 57.2 °F 100% 29.87 in 10.0 mi Variable 6.9 mph - N/A   Overcast
6:53 PM 57.9 °F 55.9 °F 93% 29.87 in 10.0 mi South 6.9 mph - N/A   Overcast
7:53 PM 57.0 °F 55.9 °F 96% 29.88 in 4.0 mi SSW 6.9 mph - N/A   Overcast
8:45 PM 57.2 °F 55.4 °F 94% 29.88 in 1.2 mi Variable 3.5 mph - N/A   Overcast
8:53 PM 57.0 °F 55.9 °F 96% 29.88 in 0.8 mi Variable 3.5 mph - N/A   Mist
9:10 PM 57.2 °F 55.4 °F 94% 29.89 in 1.2 mi SSW 4.6 mph - N/A   Overcast
9:53 PM 57.0 °F 55.9 °F 96% 29.89 in 1.0 mi SW 3.5 mph - N/A   Mist
10:04 PM 57.2 °F 55.4 °F 94% 29.90 in 0.8 mi Calm Calm - N/A   Mist
10:13 PM 57.2 °F 55.4 °F 94% 29.90 in 1.0 mi Calm Calm - N/A   Mist
10:51 PM 55.4 °F 55.4 °F 100% 29.89 in 1.8 mi Calm Calm - N/A   Overcast
10:53 PM 55.9 °F 55.9 °F 100% 29.89 in 2.0 mi Calm Calm - N/A   Overcast
11:03 PM 55.4 °F 55.4 °F 100% 29.89 in 3.0 mi Calm Calm - N/A   Overcast
11:11 PM 55.4 °F 55.4 °F 100% 29.89 in 1.8 mi Calm Calm - N/A   Overcast
11:31 PM 55.4 °F 55.4 °F 100% 29.89 in 3.0 mi Calm Calm - N/A   Overcast
11:51 PM 55.4 °F 55.4 °F 100% 29.89 in 2.5 mi Calm Calm - N/A   Overcast
11:53 PM 55.9 °F 55.9 °F 100% 29.89 in 2.0 mi Calm Calm - N/A   Overcast